Location: Unspecified
(0.0000°N, 0.0000°E)
Time: 10:09:34
(UTC+00:00)

Courier 1B Rocket - All Passes

Search period start: 11 February 2026 00:00
Search period end: 21 February 2026 00:00
Orbit: 920 x 1201 km, 28.3° (Epoch: 10 February)

Date Brightness Start Highest point End Pass type
(mag) Time Alt. Az. Time Alt. Az. Time Alt. Az.
11 Feb - 03:56:26 10° NNW 04:03:02 30° NNE 04:09:37 10° E visible
11 Feb - 05:49:11 10° WNW 05:57:04 90° NE 06:04:44 10° ESE visible
11 Feb - 07:44:30 10° W 07:51:00 29° SSW 07:57:15 10° SSE daylight
11 Feb - 15:28:03 10° SSW 15:32:24 19° SSE 15:36:42 10° ESE daylight
11 Feb - 17:19:47 10° SW 17:26:01 72° SSE 17:32:20 10° ENE daylight
11 Feb - 19:14:04 10° W 19:19:29 30° NNW 19:25:07 10° NNE visible
12 Feb - 02:55:48 10° NNW 03:01:17 21° NNE 03:06:50 10° ENE visible
12 Feb - 04:47:47 10° NW 04:55:30 63° NNE 05:03:10 10° ESE visible
12 Feb - 06:42:06 10° W 06:49:24 43° SSW 06:56:30 10° SE daylight
12 Feb - 08:40:13 10° SW 08:43:47 14° SSW 08:47:17 10° S daylight
12 Feb - 14:28:06 10° S 14:30:52 13° SSE 14:33:36 10° SE daylight
12 Feb - 16:18:49 10° SW 16:24:48 45° SSE 16:30:45 10° ENE daylight
12 Feb - 18:12:15 10° W 18:18:10 45° NNW 18:24:16 10° NE daylight
12 Feb - 20:09:16 10° NW 20:12:10 13° NNW 20:15:09 10° N visible
13 Feb - 01:55:39 10° N 01:59:27 14° NNE 02:03:19 10° NE visible
13 Feb - 03:46:40 10° NW 03:53:54 43° NNE 04:01:15 10° E visible
13 Feb - 05:40:06 10° WNW 05:47:50 62° SSW 05:55:27 10° SE visible
13 Feb - 07:36:34 10° WSW 07:42:00 20° SSW 07:47:17 10° SSE daylight
13 Feb - 15:18:03 10° SSW 15:23:31 30° SSE 15:28:53 10° E daylight
13 Feb - 17:10:44 10° WSW 17:16:58 72° NNW 17:23:14 10° NE daylight
13 Feb - 19:06:16 10° WNW 19:10:36 19° NNW 19:15:03 10° NNE visible
14 Feb - 02:45:50 10° NNW 02:52:17 30° NNE 02:58:53 10° E visible
14 Feb - 04:38:27 10° WNW 04:46:16 89° SSW 04:54:07 10° ESE visible
14 Feb - 06:33:41 10° W 06:40:17 29° SSW 06:46:46 10° SSE daylight
14 Feb - 14:17:29 10° SSW 14:22:07 20° SSE 14:26:36 10° ESE daylight
14 Feb - 16:09:26 10° SW 16:15:47 74° SSE 16:22:00 10° ENE daylight
14 Feb - 18:03:55 10° W 18:09:12 29° NNW 18:14:34 10° NNE daylight
15 Feb - 01:45:19 10° NNW 01:50:35 20° NNE 01:56:01 10° ENE visible
15 Feb - 03:37:08 10° NW 03:44:42 64° NNE 03:52:28 10° ESE visible
15 Feb - 05:31:20 10° W 05:38:37 42° SSW 05:45:54 10° SE visible
15 Feb - 07:29:17 10° SW 07:33:08 14° SSW 07:36:57 10° S daylight
15 Feb - 13:17:15 10° S 13:20:32 14° SSE 13:23:44 10° SE daylight
15 Feb - 15:08:22 10° SW 15:14:33 47° SSE 15:20:31 10° ENE daylight
15 Feb - 17:02:00 10° W 17:07:56 44° NNW 17:13:51 10° NE daylight
15 Feb - 18:59:24 10° NW 19:01:51 12° NNW 19:04:19 10° N visible
16 Feb - 00:45:23 10° N 00:48:50 14° NNE 00:52:21 10° NE night (unlit)
16 Feb - 02:36:07 10° NW 02:43:09 43° NNE 02:50:28 10° E visible
16 Feb - 04:29:25 10° WNW 04:37:01 62° SSW 04:44:46 10° SE visible
16 Feb - 06:25:46 10° WSW 06:31:17 21° SSW 06:36:46 10° SSE daylight
16 Feb - 14:07:28 10° SSW 14:13:14 31° SSE 14:18:45 10° E daylight
16 Feb - 16:00:21 10° WSW 16:06:43 70° NNW 16:12:55 10° NE daylight
16 Feb - 17:56:08 10° WNW 18:00:19 18° NNW 18:04:32 10° NNE daylight
17 Feb - 01:35:23 10° NNW 01:41:35 29° NNE 01:48:03 10° E visible
17 Feb - 03:27:52 10° WNW 03:35:28 88° SSW 03:43:21 10° ESE visible
17 Feb - 05:22:58 10° W 05:29:32 29° SSW 05:36:07 10° SSE visible
17 Feb - 13:06:44 10° SSW 13:11:46 21° SSE 13:16:35 10° ESE daylight
17 Feb - 14:58:57 10° SW 15:05:31 76° SSE 15:11:47 10° ENE daylight
17 Feb - 16:53:38 10° W 16:58:56 28° NNW 17:04:11 10° NNE daylight
18 Feb - 00:35:01 10° NNW 00:39:58 20° NNE 00:45:07 10° ENE night (unlit)
18 Feb - 02:26:38 10° NW 02:33:56 64° NNE 02:41:39 10° ESE visible
18 Feb - 04:20:43 10° W 04:27:51 42° SSW 04:35:10 10° SE visible
18 Feb - 06:18:31 10° SW 06:22:27 14° SSW 06:26:24 10° S daylight
18 Feb - 12:06:16 10° SSW 12:10:08 15° SSE 12:13:52 10° SE daylight
18 Feb - 13:57:46 10° SW 14:04:15 49° SSE 14:10:23 10° ENE daylight
18 Feb - 15:51:35 10° W 15:57:41 43° NNW 16:03:34 10° NE daylight
18 Feb - 17:49:22 10° NW 17:51:32 12° NNW 17:53:43 10° N daylight
18 Feb - 23:35:17 10° N 23:38:17 13° NNE 23:41:20 10° NE night (unlit)
19 Feb - 01:25:43 10° NW 01:32:27 43° NNE 01:39:36 10° E night (unlit)
19 Feb - 03:18:54 10° WNW 03:26:15 60° SSW 03:33:57 10° SE visible
19 Feb - 05:15:07 10° WSW 05:20:33 20° SSW 05:26:03 10° SSE visible
19 Feb - 11:06:30 10° S 11:08:19 11° SSE 11:10:07 10° SSE daylight
19 Feb - 12:56:43 10° SW 13:02:52 33° SSE 13:08:39 10° E daylight
19 Feb - 14:49:50 10° WSW 14:56:27 69° NNW 15:02:43 10° NE daylight
19 Feb - 16:45:50 10° WNW 16:50:02 18° NNW 16:54:11 10° NNE daylight
20 Feb - 00:25:04 10° NNW 00:30:57 29° NNE 00:37:10 10° E night (unlit)
20 Feb - 02:17:26 10° WNW 02:24:44 87° SSW 02:32:30 10° ESE visible
20 Feb - 04:12:26 10° W 04:18:47 28° SSW 04:25:19 10° SSE visible
20 Feb - 06:13:23 10° SSW 06:13:49 10° SSW 06:14:15 10° SSW daylight
20 Feb - 11:55:51 10° SSW 12:01:21 23° SSE 12:06:33 10° ESE daylight
20 Feb - 13:48:19 10° SW 13:55:12 78° SSE 14:01:37 10° ENE daylight
20 Feb - 15:43:12 10° W 15:48:40 28° NNW 15:53:56 10° NNE daylight
20 Feb - 23:24:49 10° NNW 23:29:26 19° NNE 23:34:14 10° ENE night (unlit)
